Orbital Elements at Epoch 2459000.5 (2020-May-31.0) TDB
Reference: JPL 19 (heliocentric ecliptic J2000)
Element | Value | Uncertainty (1-sigma) | Units |
e | .1970275913022291 | 4.5228e-08 | |
a | 2.381054738815736 | 9.8097e-09 | au |
q | 1.911921258868114 | 1.0635e-07 | au |
i | 5.46666638300024 | 4.2032e-06 | deg |
node | 182.4060638180845 | 4.3358e-05 | deg |
peri | 226.3573900564423 | 4.4445e-05 | deg |
M | 193.423952830108 | 1.2389e-05 | deg |
tp | 2459621.458459090009 (2022-Feb-10.95845909) | 4.8821e-05 | TDB |
period | 1341.999939789713 3.67 | 8.2933e-06 2.271e-08 | d yr |
n | .2682563458657166 | 1.6578e-09 | deg/d |
Q | 2.850188218763358 | 1.1742e-08 | au |
|
| | Orbit Determination Parameters
Additional Information
|